星链-3711 (STARLINK-3711 )

导读

STARLINK-3711是美国太空探索技术公司Starlink卫星互联网项目的成员,发射于2022年3月19日。它属于星链星座的低轨道通信卫星,运行在近地轨道,旨在为全球提供高速低延迟的宽带互联网服务,目前已在轨运行约4年,是星链组网建设中一颗常规的通信卫星。

Basic Information
目录编号:
52131
目录名称:
STARLINK-3711
国际标识:
2022-029AV
轨道中心:
EARTH
卫星名称:
星链-3711
卫星全名:
星链-3711 (STARLINK-3711 )
卫星状态:
在轨 (已飞行1638 天)
发射日期:
2022-03-19 UTC
国别 :
美国 (US)
星等 :
--
This satellite is enrolled in the Space Conjunction Data Service (SCDS) and the current flight risk assessment level is: No High Risk
Orbit Information
数据来源 国际轨道数据
星历时间: 2026-09-11T21:09:54+0800
18小时前
查看轨道信息
半长轴: 6877.097km
偏心率: 0.000389
轨道倾角: 53.223°
近地点辐角 54.934°
升交点赤经 300.843°
平近点角 305.202°
近地点: 496.284km
远地点: 501.636km
周期: 94.595分钟
每日圈数: 15.222818
Detailed Information
固有亮度:
5
最大亮度:
2.5
卫星平台:
Starlink v1.5
覆盖范围:
全球
运营商:
太空探索技术公司
运营商所在国:
美国
制造商(研发单位):
太空探索技术公司
制造商所在国:
美国
使用方式:
暂无
Satellite Introduction
星链(Starlink)计划是由太空探索技术公司(SpaceX)提出的一个巨型低轨卫星互联网星座项目,计划在2019年至2024年间在太空搭建由约1.2万颗卫星组成的“星链”网络,其中1584颗将部署在地球上空550千米处的近地轨道,并从2020年开始工作。该卫星仍在工作。
2D Orbit Map
3D Orbit Map
Orbit Altitude Analysis Chart
Orbit Inclination Analysis Chart
Orbit Comprehensive Analysis Chart
View Comprehensive Chart
Conjunction Data List
Event ID Objects TCA Miss Dist (km) Collision Risk Probability Collision Risk Index (CRI) Action
CDM_260914-135605-213106-900721
BRO-21 (69007)
2026-09-14T
13:56:18+0000
1.194 km
极远距离
1.389361E-5 中风险 0.58
CDM_260912-033505-213106-900724
BRO-21 (69007)
2026-09-12T
03:35:01+0000
1.380 km
极远距离
8.620614E-6 低风险 0.54
CDM_260912-174205-213106-674121
2026-09-12T
17:42:33+0000
2.291 km
极远距离
1.317762E-6 低风险 0.37
CDM_260912-173105-213105-906622
OBJECT R (59066)
2026-09-12T
17:31:32+0000
2.649 km
极远距离
9.023974E-7 极低风险 0.34
Miss Distance Evolution Trend with All Objects
Collision Probability Evolution Trend with All Objects